RADUGA 30

Satellite information

Favourite Embed

Satellite Type and Status

PAYLOADIN ORBIT

Key statistics

Satellite RADUGA 30 at a glance.

Uptime

11723

Days in orbit

Revolutions

≈ 1.0

Per day

Orbit

OTHER

Other

Inclination

14.1

Latest

Satellite identification and parameters

Extended collection of information and parameters for RADUGA 30.

Object identification

Identified? True

Debris? False

Object name: RADUGA 30

International designator: 1993-062A

Object number (NORAD): 22836

Object ID (CCSDS): 22836

Country: COMMONWEALTH OF INDEPENDENT STATES (CIS)

Current information (Y/N): Y

RCS size: MEDIUM

Orbital parameters

Period: 1435.89 minutes

Inclination: 14.12 deg

SMA: 42160.673 km

Apoapsis: 35804.988 km

Periapsis: 35760.087 km

RAAN: 348.8122 deg

Eccentricy: 0.0005325

Argument of periapsis: 298.5066 deg

Mean anomaly: 59.5358 deg

Mean motion: 1.00286267 rev/day

Mean motion (dot): -0.00000119 rev/day2

B* drag term: 0.0 1/REarth

Two-line elements (TLE)

Creation date: Nov. 3, 2025, 11:26 p.m.

Reference frame: TEME

Reference center: EARTH

Epoch: Nov. 3, 2025, 3:09 p.m. UTC

TLE line 0: 0 RADUGA 30

TLE line 1: 1 22836U 93062A 25307.63148682 -.00000119 00000-0 00000+0 0 9997

TLE line 2: 2 22836 14.1200 348.8122 0005325 298.5066 59.5358 1.00286267 43734

Live tracking on map

Real-time ground track for satellite RADUGA 30.

In-orbit conjunctions

A list of the most updated potential collisions computed for object RADUGA 30.

Target Orbit TCA Probability of collision Miss distance Type
COSMOS 1700 OTHER 2025-05-12 18:18:07 TBA 1892.0 (m) PAYLOAD

Associated space launch

Geostationary communications satellite for military and governmental puposes

RADUGA 30 was lifted into orbit during the mission ‘Proton | Raduga 30’, on board a Proton space rocket.

The launch took place on Sept. 30, 1993, 5:05 p.m. from 81/23 (81L).

For more information about the launch, click the button.

Launch to space Proton | Raduga 30
Proton | Raduga 30

Agency: N/A

Status: Launch Successful

Launch date: Sept. 30, 1993, 5:05 p.m. UTC

Rocket: Proton

Launch pad: 81/23 (81L)

Location: Baikonur Cosmodrome, Republic of Kazakhstan

...

Latest news about this satellite

There are no fresh news available about this satellite. Check back as we update our databases every day.


Newsletter sign-up

Weekly statistics, charts and insights to help you stay on top of the space industry.